This is the latest recevied weather packets stored in our database for station/object F5MAP-5. If no packets are shown the sender has not sent any weather packets the latest 10 day(s).
| Time | Temp. | Humidity | Pressure | Rain* | Wind** | Luminosity | Snow |
|---|---|---|---|---|---|---|---|
| 1778320931 | 20.56° C | 60% | 1016.5 hPa | 0 mm | - | 775 W/m² | - |
| 1778320331 | 20.56° C | 62% | 1016.6 hPa | 0 mm | - | 761 W/m² | - |
| 1778319731 | 20° C | 63% | 1016.6 hPa | 0 mm | - | 747 W/m² | - |
| 1778319130 | 19.44° C | 63% | 1016.8 hPa | 0 mm | - | 729 W/m² | - |
| 1778318530 | 19.44° C | 63% | 1016.9 hPa | 0 mm | - | 714 W/m² | - |
| 1778317930 | 18.89° C | 64% | 1016.9 hPa | 0 mm | - | 701 W/m² | - |
| 1778317330 | 18.33° C | 65% | 1017.1 hPa | 0 mm | - | 682 W/m² | - |
| 1778316730 | 18.33° C | 68% | 1017.1 hPa | 0 mm | - | 668 W/m² | - |
| 1778316130 | 17.78° C | 68% | 1017.1 hPa | 0 mm | - | 649 W/m² | - |
| 1778315530 | 17.22° C | 70% | 1017.2 hPa | 0 mm | - | 628 W/m² | - |
| 1778314931 | 16.67° C | 70% | 1017.2 hPa | 0 mm | - | 608 W/m² | - |
| 1778314336 | 16.67° C | 71% | 1017.1 hPa | 0 mm | - | 577 W/m² | - |
| 1778313736 | 16.11° C | 72% | 1017.3 hPa | 0 mm | - | 552 W/m² | - |
| 1778313135 | 16.11° C | 73% | 1017.2 hPa | 0 mm | - | 534 W/m² | - |
| 1778312535 | 15.56° C | 73% | 1017.2 hPa | 0 mm | - | 506 W/m² | - |
| 1778311335 | 15° C | 76% | 1017.4 hPa | 0 mm | - | 455 W/m² | - |
| 1778310735 | 14.44° C | 77% | 1017.4 hPa | 0 mm | - | 424 W/m² | - |
| 1778310135 | 14.44° C | 79% | 1017.6 hPa | 0 mm | - | 62 W/m² | - |
| 1778308935 | 13.89° C | 83% | 1017.6 hPa | 0 mm | - | 56 W/m² | - |
| 1778307735 | 12.78° C | 86% | 1017.3 hPa | 0 mm | - | 53 W/m² | - |
| 1778307134 | 12.22° C | 88% | 1017.3 hPa | 0 mm | - | 51 W/m² | - |
| 1778306534 | 11.67° C | 88% | 1017.4 hPa | 0 mm | - | 49 W/m² | - |
| 1778305936 | 11.67° C | 89% | 1017.3 hPa | 0 mm | - | 47 W/m² | - |
| 1778305336 | 11.11° C | 88% | 1017.3 hPa | 0 mm | - | 46 W/m² | - |
| 1778304736 | 11.11° C | 88% | 1017.3 hPa | 0 mm | - | 46 W/m² | - |
* Rain latest hour (hover to see other rain measurements)
** Current wind speed in m/s (hover to see current wind gust speed)